Regional Weather Roundup
Issued by NWS

Home | Current Version | Previous Version | Graphics & Text | Print | Product List | Glossary Off
Versions: 1 2 3 4 5 6 7 8 9 10 11 12 13 14 15 16 17 18 19 20 21 22 23 24 25 26 27 28 29 30 31 32 33 34 35 36 37 38 39 40 41 42 43 44 45 46 47 48 49 50

483
ASUS43 KIND 141959
RWRIN

WEATHER ROUNDUP FOR INDIANA
NATIONAL WEATHER SERVICE INDIANAPOLIS IN
300 PM EST SUN FEB 14 2016

NOTE: "FAIR" INDICATES FEW OR NO CLOUDS BELOW 12,000 FEET WITH NO
SIGNIFICANT WEATHER AND/OR OBSTRUCTIONS TO VISIBILITY.

* - STATION DOES NOT REPORT WEATHER SUCH AS PRECIPITATION OR FOG.

+ - STATION NOT QUALITY CONTROLLED BY THE NATIONAL WEATHER SERVICE.
    USE DATA WITH CAUTION...ESPECIALLY DEWPOINT AND RELATIVE
    HUMIDITY OBSERVATIONS.

INZ001>003-010>013-019-020-142100-
NORTHWEST INDIANA

CITY           SKY/WX    TMP DP  RH WIND       PRES   REMARKS
GARY /AIRPORT/ LGT SNOW  18  12  79 SE15      30.18F VSB 1   WCI   3
VALPARAISO     SNOW      16  12  84 E15       30.18F WCI   1

$$

LMZ046-743>745-142100-
SOUTHERN LAKE MICHIGAN

STATION/POSITION TIME  TEMP    WIND        PRES    WAVE
                       AIR SEA DIR/SP/G            HT
                 (UTC) (F)     (DEG/KT/KT) (MB)    (FT)
BURNS HARBOR     1920   15     120/  9/ 17 1023.4F
MICHIGAN CITY    1900   15     120/ 13/ 17   N/A

$$

INZ004-005-014>016-021>024-142100-
NORTH CENTRAL INDIANA

CITY           SKY/WX    TMP DP  RH WIND       PRES   REMARKS
GOSHEN         CLOUDY    18   5  57 SE12      30.23F WCI   5
SOUTH BEND     CLOUDY    16   4  59 SE14      30.25R WCI   2

$$

INZ006>009-017-018-025>027-142100-
NORTHEAST INDIANA

CITY           SKY/WX    TMP DP  RH WIND       PRES   REMARKS
ANGOLA *+      SUNNY     16   7  67 SE13      30.23F WCI   2
FORT WAYNE     CLOUDY    18   5  57 SE14      30.26F WCI   4

$$

INZ028-029-035-036-043>045-051>053-142100-
WEST CENTRAL INDIANA

CITY           SKY/WX    TMP DP  RH WIND       PRES   REMARKS
CRAWFORDSVL +  LGT SNOW  17  11  80 E12G17    30.12F VSB 3/4 WCI   4
GREENCASTLE +  SNOW      19  12  73 SE16      30.13F VSB 1/4 WCI   5
LAFAYETTE      SNOW      18  14  84 E10       30.16F VSB 1/2 WCI   6
TERRE HAUTE    HVY SNOW  19  15  84 SE15      30.12F VSB 1/4 WCI   5

$$

INZ030>032-037>040-046>048-054>057-064-065-142100-
CENTRAL INDIANA

CITY           SKY/WX    TMP DP  RH WIND       PRES   REMARKS
COLUMBUS       LGT SNOW  18  18 100 E13       30.19F VSB 3/4 WCI   4
GREENWOOD *+   CLOUDY    19  18  93 E10G17    30.16F VSB 1/2 WCI   8
INDIANAPOLIS   SNOW      18  14  84 E14       30.13F VSB 1/4 WCI   4
-EAGLE CREEK   HVY SNOW  18  14  84 E12       30.14F VSB 1/4 WCI   5
KOKOMO *+      CLOUDY    16  10  79 SE17      30.19F WCI   0
MT COMFORT *+  CLOUDY    18  14  86 SE12      30.19F VSB 1/2 WCI   5
SHELBYVILLE    SNOW      19  14  81 SE13      30.17F VSB 1/2 WCI   6

$$

INZ033-034-041-042-049-050-058-059-142100-
EAST CENTRAL INDIANA

CITY           SKY/WX    TMP DP  RH WIND       PRES   REMARKS
MUNCIE         HVY SNOW  17  12  80 SE9       30.21F VSB 1/4 WCI   6

$$

INZ060-061-067>069-081>083-085>088-142100-
SOUTHWEST INDIANA

CITY           SKY/WX    TMP DP  RH WIND       PRES   REMARKS
EVANSVILLE     LGT SNOW  24  18  77 E9        30.12F WCI  14
HUNTINGBURG *+ CLOUDY    21  18  86 E10       30.14F WCI  10

$$

INZ062-063-066-070>080-084-089>092-142100-
SOUTH CENTRAL AND SOUTHEAST INDIANA

CITY           SKY/WX    TMP DP  RH WIND       PRES   REMARKS
BLOOMINGTON    HVY SNOW  19  16  88 SE10      30.13F VSB 1/4 WCI   7
MADISON *+     CLOUDY    21  16  79 E8        30.21F VSB 3/4 WCI  12
SEYMOUR +      LGT SNOW  21  18  86 SE7       30.20F VSB 1   WCI  13

$$





USA.gov is the U.S. government's official web portal to all federal, state and local government web resources and services.